Regional Weather Roundup
Issued by NWS

Home | Current Version | Previous Version | Text Only | Print | Product List | Glossary Off
Versions: 1 2 3 4 5 6 7 8 9 10 11 12 13 14 15 16 17 18 19 20 21 22 23 24 25 26 27 28 29 30 31 32 33 34 35 36 37 38 39 40 41 42 43 44 45 46 47 48 49 50

000
ASUS45 KBOU 241307
RWRCO

WEATHER ROUNDUP FOR COLORADO
NATIONAL WEATHER SERVICE DENVER/BOULDER CO
700 AM MDT FRI APR 24 2015

NOTE: "FAIR" INDICATES FEW OR NO CLOUDS BELOW 12000 FEET WITH NO
SIGNIFICANT WEATHER AND/OR OBSTRUCTIONS TO VISIBILITY.

COZ001>005-013-030-031-241400-
...NORTHWEST COLORADO...

CITY           SKY/WX    TMP DP  RH WIND       PRES   REMARKS
CRAIG          PTCLDY    31  27  85 SE3       29.82S
HAYDEN         PTCLDY    32  27  80 E7        29.82S WCI  26
MEEKER         PTCLDY    30  25  81 E5        29.82S WCI  25
MOUNT WERNER   NOT AVBL
STEAMBOAT SPGS PTCLDY    31  27  86 CALM      29.84R
WALDEN         CLEAR     30  23  74 SE3       29.84S
$$

COZ006>008-011-241400-
...WEST CENTRAL VALLEYS...

CITY           SKY/WX    TMP DP  RH WIND       PRES   REMARKS
GRAND JUNCTION PTCLDY    44  33  65 E9        29.77S
MONTROSE       MOCLDY    39  30  70 CALM      29.84S
EAGLE          PTCLDY    32  28  86 CALM      29.89R
RIFLE          PTCLDY    37  30  75 CALM      29.82S
DELTA          MOCLDY    41  32  69 NE6       29.83R
NUCLA          MOCLDY    41  27  56 SE5       29.88R
$$

COZ017>023-064>068-241400-
...SOUTHWEST COLORADO...

CITY           SKY/WX    TMP DP  RH WIND       PRES   REMARKS
DURANGO        MOCLDY    33  33 100 E5        29.89F WCI  29
CORTEZ         CLEAR     43  29  57 CALM      29.86R
PAGOSA SPRINGS MOCLDY    33  33 100 CALM      29.93S FOG
TELLURIDE      MOCLDY    37  21  53 CALM      29.93S
WOLF CREEK PAS PTCLDY    21  19  93 SW12      30.01F WCI   9
$$

COZ009-010-012-014-032>034-037-058>063-241400-
...CENTRAL COLORADO...

CITY           SKY/WX    TMP DP  RH WIND       PRES   REMARKS
ASPEN          MOCLDY    32  22  66 SW3       29.86S
BUENA VISTA    MOCLDY    32  27  81 NE3       29.89S
COPPER MTN     NOT AVBL
BERTHOUD PASS  FAIR      21  12  68 NW28      29.95F HAZE    WCI   3
COTTONWOOD PAS MOCLDY    34  23  64 NW7       29.92S WCI  28
GUNNISON       CLOUDY    30  23  74 CALM      29.94F
KREMMLING      MOCLDY    30  27  86 CALM      29.89R
LEADVILLE      PTCLDY    21  16  81 VRB5      29.90F WCI  15
SALIDA         MOCLDY    42  31  65 SW8       29.95S
SUNLIGHT       PTCLDY    30  21  69 CALM      29.98S
WILKERSON PASS MOCLDY    27  18  69 W9G16     29.97R WCI  17
$$

COZ069>075-241400-
...SAN LUIS VALLEY/SANGRE DE CRISTO MOUNTAINS...

CITY           SKY/WX    TMP DP  RH WIND       PRES   REMARKS
ALAMOSA        PTCLDY    36  29  75 W7        29.89S
LA VETA PASS   PTCLDY    30  23  74 S3        29.92R
SAGUACHE       CLOUDY    37  30  75 N6        29.90F
$$

COZ035-036-038>040-241400-
...NORTHERN COLORADO FRONT RANGE...

CITY           SKY/WX    TMP DP  RH WIND       PRES   REMARKS
DENVER INTL AP PTCLDY    44  31  60 S9        29.74S
DMNS CITY PARK   N/A     46  28  49 S6        29.74S
AURORA         NOT AVBL
FRONT RANGE AP PTCLDY    41  36  81 S5        29.76S
ERIE MUNI ARPT PTCLDY    38  34  84 CALM      29.73S
BOULDER MUN AP PTCLDY    45  32  61 NW6       29.73S
CENTENNIAL     PTCLDY    42  29  59 S8        29.76S
BROOMFIELD     PTCLDY    46  28  49 CALM      29.75S
FORT COLLINS   CLEAR     41  32  70 CALM      29.75R
LONGMONT       CLEAR     42  34  72 CALM      29.75S
$$

COZ041-046-047-076>085-087-088-241400-
...PIKES PEAK/PALMER DIVIDE AND SOUTHERN FOOTHILLS...

CITY           SKY/WX    TMP DP  RH WIND       PRES   REMARKS
COLO. SPRINGS  MOCLDY    44  29  55 NW6       29.78S
A. F. ACADEMY  NOT AVBL
ELLICOTT       PTCLDY   N/A N/A N/A S3        29.77R
FALCON         PTCLDY    44  22  41 W6        29.80S
FORT CARSON    PTCLDY    41  28  60 N8        29.75F
LIMON          CLEAR     34  33  96 N6        29.75F WCI  29
MONUMENT HILL  PTCLDY    41  25  52 SW6       29.79S
TRINIDAD       MOCLDY    43  27  53 W7        29.78S
$$

COZ042>045-048>051-090-091-241400-
...NORTHEAST COLORADO...

CITY           SKY/WX    TMP DP  RH WIND       PRES   REMARKS
GREELEY ARPT   PTCLDY    45  34  65 CALM      29.74S
AKRON          FOG       46  46 100 S8        29.71S VSB<1/4
BURLINGTON     CLOUDY    49  47  93 SE3       29.72S FOG
WRAY           CLOUDY   N/A N/A N/A S5        29.69F FOG
STERLING       FOG       46  46 100 W6        29.71R VSB 1/4
HOLYOKE        MOSUNNY   52  48  87 S9        29.69R FOG
FORT MORGAN    CLEAR     42  40  91 W6        29.73R
$$

COZ086-089-092>099-241400-
...SOUTHEAST COLORADO...

CITY           SKY/WX    TMP DP  RH WIND       PRES   REMARKS
PUEBLO         MOCLDY    40  35  83 W6        29.74R
LA JUNTA       FOG       49  47  93 CALM      29.73R VSB 1/4
LAMAR          CLOUDY    53  51  93 VRB3      29.70R FOG
SPRINGFIELD      N/A     48  36  63 W8        29.72R
$$



USA.gov is the U.S. government's official web portal to all federal, state and local government web resources and services.